Flag for Canada Weather past 2 weeks in Quispamsis, New Brunswick, Canada

36 °F


Feels Like: 29 °F
Forecast: 33 / 59 °F
Wind: 8 mph from Northeast

Location: Saint John

Current Time: Oct 4, 2015 at 12:47:56 AM

Latest Report: Oct 4, 2015 at 12:00 AM

Visibility: 15 mi

Pressure: 30.55 "Hg

Humidity: 93%

Dew point: 34 °F

Location of QuispamsisLocation

Historic Weather in Quispamsis — Graph


Quispamsis temperature yesterday

Maximum temperature yesterday: 54 °F (at 1:00 PM)
Minimum temperature yesterday: 36 °F (at 11:00 PM)
Average temperature yesterday: 46 °F

Past Weeks' High & Low Weather Summary

High70 °F (Sep 23, 1:00 PM)100% (Sep 18, 11:00 PM)30.55 "Hg (Sep 18, 11:00 PM)
Low28 °F (Sep 27, 5:00 AM)31% (Sep 26, 5:00 PM)29.74 "Hg (Sep 30, 9:00 PM)
Average54 °F82%30.23 "Hg
* Reported Sep 18 11:00 PM — Oct 3 11:00 PM, Quispamsis, Weather by CustomWeather, © 2015

Note: Actual official high and low records may vary slightly from our data, if they occured in-between our weather recording intervals... More about our weather records


Quispamsis weather history for previous 24 hours

Time TempWeatherWind HumidityBarometerVisibility
11:00 PM
Sat, Oct 3
36 °FClear.5 mph93%30.55 "Hg15 mi
10:00 PM37 °FClear.6 mph87%30.55 "Hg15 mi
9:00 PM43 °FClear.12 mph76%30.55 "Hg15 mi
8:00 PM45 °FClear.13 mph71%30.53 "Hg15 mi
7:00 PM46 °FPassing clouds.14 mph62%30.52 "Hg15 mi
6:00 PM50 °FPassing clouds.16 mph58%30.50 "Hg15 mi
5:00 PM52 °FPassing clouds.22 mph54%30.49 "Hg15 mi
4:00 PM52 °FPartly sunny.24 mph62%30.49 "Hg15 mi
3:00 PM52 °FScattered clouds.26 mph58%30.49 "Hg15 mi
2:00 PM50 °FSprinkles. Partly sunny.22 mph76%30.49 "Hg15 mi
1:00 PM54 °FBroken clouds.18 mph63%30.47 "Hg15 mi
12:00 PM50 °FPartly sunny.25 mph71%30.46 "Hg15 mi
11:00 AM50 °FPartly sunny.22 mph76%30.45 "Hg15 mi
10:00 AM46 °FPartly sunny.22 mph82%30.45 "Hg15 mi
9:00 AM45 °FPartly sunny.22 mph87%30.44 "Hg15 mi
8:03 AM45 °FPassing clouds.22 mph87%30.43 "Hg15 mi
7:00 AM45 °FFog.23 mph87%30.42 "Hg6 mi
6:00 AM45 °FFog.20 mph93%30.40 "Hg6 mi
5:00 AM45 °FFog.23 mph87%30.40 "Hg6 mi
4:00 AM45 °FFog.23 mph87%30.40 "Hg6 mi
3:00 AM45 °FMostly cloudy.22 mph87%30.41 "Hg6 mi
2:00 AM45 °FFog.20 mph93%30.40 "Hg5 mi
1:00 AM45 °FFog.22 mph93%30.39 "Hg5 mi
12:00 AM46 °FMostly cloudy.22 mph87%30.40 "Hg8 mi
Weather by CustomWeather, © 2015

See weather overviewHow to use our weather pages